DW2447 Weather Reports


time (UTC)temp
C
wind
direction
speed
KPH
gust
KPH
rain 1hr
cm
rain 24hr
cm
rain mn
cm
humidity
%
barometer
mb
20260509112701 17 87 0.0 0.0 0.00 0.00 0.00 97 1014.1
20260509112158 17 86 0.0 0.0 0.00 0.00 0.00 97 1014.1
20260509111655 17 86 0.0 0.0 0.00 0.00 0.00 97 1013.8
20260509111151 16 87 0.0 0.0 0.00 0.00 0.00 97 1013.6
20260509110649 16 86 0.0 0.0 0.00 0.00 0.00 97 1013.7
20260509110146 16 87 0.0 0.0 0.00 0.00 0.00 97 1013.6
20260509105644 16 87 0.0 0.0 0.00 0.00 0.00 97 1013.5
20260509105141 16 86 0.0 0.0 0.00 0.00 0.00 96 1013.7
20260509104638 16 86 0.0 0.0 0.00 0.00 0.00 96 1013.5
20260509104135 16 86 0.0 0.0 0.00 0.00 0.00 96 1013.5
20260509103633 16 86 0.0 0.0 0.00 0.00 0.00 96 1013.4
20260509103131 16 87 0.0 0.0 0.00 0.00 0.00 96 1013.1
20260509102628 16 87 0.0 0.0 0.00 0.00 0.00 96 1013.3
20260509102125 16 86 0.0 0.0 0.00 0.00 0.00 96 1013.1
20260509101621 16 87 0.0 0.0 0.00 0.00 0.00 96 1013.2
20260509101118 16 87 0.0 0.0 0.00 0.00 0.00 96 1013.2
20260509100615 16 87 0.0 0.0 0.00 0.00 0.00 95 1013.2
20260509100112 16 86 0.0 0.0 0.00 0.00 0.00 95 1013.1
20260509095608 16 86 0.0 0.0 0.00 0.00 0.00 95 1013.1
20260509095106 16 86 0.0 0.0 0.00 0.00 0.00 95 1013.3
20260509094602 16 87 0.0 0.0 0.00 0.00 0.00 95 1013.4
20260509094059 17 87 0.0 0.0 0.00 0.00 0.00 95 1013.4
20260509093558 17 87 0.0 0.0 0.00 0.00 0.00 95 1013.4
20260509093055 17 87 0.0 0.0 0.00 0.00 0.00 95 1013.4
20260509092552 17 86 0.0 0.0 0.00 0.00 0.00 94 1013.6
20260509092051 17 86 0.0 0.0 0.00 0.00 0.00 94 1013.6
20260509091548 17 87 0.0 0.0 0.00 0.00 0.00 94 1013.7
20260509091044 17 87 0.0 0.0 0.00 0.00 0.00 94 1013.6
20260509090542 17 87 0.0 0.0 0.00 0.00 0.00 94 1013.6
20260509090040 17 87 0.0 0.0 0.00 0.00 0.00 94 1013.5
20260509085537 17 87 0.0 0.0 0.00 0.00 0.00 94 1013.5
20260509085032 17 87 0.0 0.0 0.00 0.00 0.00 94 1013.5
20260509084530 17 88 0.0 0.0 0.00 0.00 0.00 94 1013.4
20260509084027 17 85 0.0 0.0 0.00 0.00 0.00 94 1013.6
20260509083525 17 78 0.0 0.0 0.00 0.00 0.00 94 1013.7
20260509083021 17 78 0.0 0.0 0.00 0.00 0.00 93 1013.5
20260509082518 17 73 1.6 1.6 0.00 0.00 0.00 93 1013.2
20260509082015 17 90 0.0 0.0 0.00 0.00 0.00 93 1013.0
20260509081513 17 92 0.0 0.0 0.00 0.00 0.00 93 1013.4
20260509081009 17 92 0.0 0.0 0.00 0.00 0.00 93 1013.8
20260509080507 17 92 0.0 0.0 0.00 0.00 0.00 93 1013.9
20260509080005 17 89 0.0 0.0 0.00 0.00 0.00 93 1014.2
20260509075502 17 88 0.0 0.0 0.00 0.00 0.00 93 1014.3
20260509075000 17 88 0.0 0.0 0.00 0.00 0.00 92 1014.0
20260509074457 17 88 0.0 0.0 0.00 0.00 0.00 92 1013.9
20260509073953 17 88 0.0 0.0 0.00 0.00 0.00 92 1013.9
20260509073450 17 88 0.0 0.0 0.00 0.00 0.00 92 1013.8
20260509072946 17 89 0.0 0.0 0.00 0.00 0.00 92 1013.6
20260509072443 17 88 0.0 0.0 0.00 0.00 0.00 92 1013.8
20260509071940 17 80 0.0 0.0 0.00 0.00 0.00 92 1013.8
20260509071436 17 80 0.0 0.0 0.00 0.00 0.00 92 1013.8
20260509070934 17 81 0.0 0.0 0.00 0.00 0.00 91 1013.8
20260509070431 17 82 0.0 0.0 0.00 0.00 0.00 91 1013.7
20260509065926 17 82 0.0 0.0 0.00 0.00 0.00 91 1013.9
20260509065422 17 81 0.0 0.0 0.00 0.00 0.00 91 1014.0
20260509064919 17 80 0.0 0.0 0.00 0.00 0.00 91 1014.1
20260509064417 17 80 0.0 0.0 0.00 0.00 0.00 91 1014.2
20260509063914 17 80 0.0 0.0 0.00 0.00 0.00 91 1014.4
20260509063410 17 86 0.0 0.0 0.00 0.00 0.00 90 1013.9
20260509062907 17 88 0.0 0.0 0.00 0.00 0.00 90 1014.0
20260509062404 17 88 0.0 0.0 0.00 0.00 0.00 90 1014.4
20260509061902 17 85 0.0 0.0 0.00 0.00 0.00 90 1014.5
20260509061400 17 77 0.0 0.0 0.00 0.00 0.00 90 1015.0
20260509060856 17 76 0.0 0.0 0.00 0.00 0.00 90 1015.3
20260509060353 17 73 1.6 1.6 0.00 0.00 0.00 90 1015.2
20260509055848 17 83 0.0 0.0 0.00 0.00 0.00 89 1015.0
20260509055344 17 85 0.0 0.0 0.00 0.00 0.00 89 1014.9
20260509054841 17 79 3.2 3.2 0.00 0.00 0.00 89 1014.6
20260509054338 17 89 0.0 0.0 0.00 0.00 0.00 89 1015.0
20260509053836 17 89 0.0 0.0 0.00 0.00 0.00 89 1014.5
20260509053333 17 89 0.0 0.0 0.00 0.00 0.00 89 1014.8
20260509052832 17 100 0.0 1.6 0.00 0.00 0.00 89 1015.1
20260509052329 17 73 0.0 0.0 0.00 0.00 0.00 89 1015.0
20260509051826 17 81 1.6 1.6 0.00 0.00 0.00 89 1014.7
20260509051324 17 92 0.0 0.0 0.00 0.00 0.00 89 1015.1
20260509050820 17 74 0.0 0.0 0.00 0.00 0.00 89 1015.5
20260509050317 17 71 1.6 1.6 0.00 0.00 0.00 88 1015.7
20260509045814 17 79 0.0 0.0 0.00 0.00 0.00 88 1015.5
20260509045311 17 78 0.0 0.0 0.00 0.00 0.00 87 1015.4
20260509044808 17 93 0.0 0.0 0.00 0.00 0.00 87 1015.5
20260509044306 17 91 0.0 0.0 0.00 0.00 0.00 87 1015.9
20260509043802 17 94 0.0 0.0 0.00 0.00 0.00 87 1015.9
20260509043258 17 78 0.0 0.0 0.00 0.00 0.00 87 1016.0
20260509042754 17 77 0.0 0.0 0.00 0.00 0.00 87 1016.4
20260509042251 17 76 0.0 0.0 0.00 0.00 0.00 87 1016.3
20260509041748 17 91 0.0 0.0 0.00 0.00 0.00 86 1016.1
20260509041245 17 91 0.0 0.0 0.00 0.00 0.00 86 1015.8
20260509040743 17 91 0.0 0.0 0.00 0.00 0.00 86 1015.9
20260509040240 17 92 0.0 0.0 0.00 0.00 0.00 86 1016.1
20260509035737 17 89 0.0 0.0 0.00 0.00 0.00 86 1016.0
20260509035233 17 91 0.0 0.0 0.00 0.00 0.00 87 1016.3
20260509034730 17 89 0.0 0.0 0.00 0.00 0.00 87 1016.2
20260509034228 17 88 0.0 0.0 0.00 0.00 0.00 87 1016.5
20260509033725 17 88 0.0 0.0 0.00 0.00 0.00 87 1016.4
20260509033222 17 88 0.0 0.0 0.00 0.00 0.00 87 1016.4
20260509032719 17 88 0.0 0.0 0.00 0.00 0.00 87 1016.7
20260509032216 17 88 0.0 0.0 0.00 0.00 0.00 87 1016.7
20260509031713 17 89 0.0 0.0 0.00 0.00 0.00 86 1016.7
20260509031211 17 89 0.0 0.0 0.00 0.00 0.00 85 1016.5
20260509030709 17 89 0.0 0.0 0.00 0.00 0.00 85 1016.7
20260509030206 18 89 0.0 0.0 0.00 0.00 0.00 84 1016.9
20260509025702 17 90 0.0 0.0 0.00 0.00 0.00 84 1016.7
20260509025158 17 90 0.0 0.0 0.00 0.00 0.00 84 1016.8
20260509024653 18 80 0.0 0.0 0.00 0.00 0.00 84 1017.0
20260509024149 18 88 0.0 0.0 0.00 0.00 0.00 83 1016.6
20260509023648 18 87 0.0 0.0 0.00 0.00 0.00 83 1016.5
20260509023144 18 87 0.0 0.0 0.00 0.00 0.00 83 1016.4
20260509022640 18 88 0.0 0.0 0.00 0.00 0.00 83 1016.3
20260509022138 18 73 0.0 0.0 0.00 0.00 0.00 83 1016.4
20260509021635 18 72 0.0 0.0 0.00 0.00 0.00 83 1016.6
20260509021132 18 80 0.0 0.0 0.00 0.00 0.00 83 1016.5
20260509020630 18 83 0.0 0.0 0.00 0.00 0.00 82 1016.6
20260509020127 18 90 0.0 1.6 0.00 0.00 0.00 81 1016.3
20260509015626 18 90 0.0 0.0 0.00 0.00 0.00 81 1016.4
20260509015123 18 90 0.0 0.0 0.00 0.00 0.00 81 1016.4
20260509014619 18 90 0.0 0.0 0.00 0.00 0.00 80 1016.4
20260509014116 18 96 1.6 1.6 0.00 0.00 0.00 80 1016.3
20260509013613 18 90 0.0 0.0 0.00 0.00 0.00 80 1016.3
20260509013108 18 90 0.0 0.0 0.00 0.00 0.00 79 1016.5
20260509012605 18 89 0.0 0.0 0.00 0.00 0.00 79 1016.5
20260509012102 18 89 0.0 0.0 0.00 0.00 0.00 79 1016.3
20260509011600 18 89 0.0 0.0 0.00 0.00 0.00 79 1016.5
20260509011057 18 89 0.0 0.0 0.00 0.00 0.00 79 1016.2
20260509010555 18 89 0.0 0.0 0.00 0.00 0.00 78 1016.1
20260509010051 18 89 0.0 0.0 0.00 0.00 0.00 78 1016.1
20260509005549 18 91 0.0 1.6 0.00 0.00 0.00 77 1016.2
20260509005044 18 92 0.0 0.0 0.00 0.00 0.00 77 1016.2
20260509004541 18 89 0.0 0.0 0.00 0.00 0.00 77 1016.1
20260509004038 18 89 0.0 0.0 0.00 0.00 0.00 77 1016.1
20260509003536 18 89 0.0 0.0 0.00 0.00 0.00 77 1015.9
20260509003033 18 89 0.0 0.0 0.00 0.00 0.00 76 1015.9
20260509002531 18 89 0.0 0.0 0.00 0.00 0.00 76 1015.7
20260509002028 18 82 0.0 0.0 0.00 0.00 0.00 75 1015.5
20260509001525 18 88 0.0 0.0 0.00 0.00 0.00 75 1015.8
20260509001021 18 88 0.0 0.0 0.00 0.00 0.00 74 1015.9
20260509000520 19 89 0.0 0.0 0.00 0.00 0.00 74 1015.8
20260509000015 19 89 0.0 0.0 0.00 0.00 0.00 74 1015.6
20260508235514 19 109 3.2 3.2 0.00 0.00 0.00 73 1015.7
20260508235009 19 90 0.0 1.6 0.00 0.00 0.00 73 1015.5
20260508234507 19 90 0.0 1.6 0.00 0.00 0.00 72 1015.4
20260508234004 19 90 0.0 0.0 0.00 0.00 0.00 71 1015.6
20260508233503 19 87 0.0 1.6 0.00 0.00 0.00 71 1015.2
20260508233000 20 89 0.0 0.0 0.00 0.00 0.00 71 1015.3
20260508232457 20 89 0.0 1.6 0.00 0.00 0.00 70 1015.3
20260508231954 20 90 0.0 0.0 0.00 0.00 0.00 70 1015.3
20260508231451 20 92 0.0 0.0 0.00 0.00 0.00 69 1015.1
20260508230948 20 89 0.0 0.0 0.00 0.00 0.00 70 1015.5
20260508230444 20 106 1.6 1.6 0.00 0.00 0.00 69 1015.5
20260508225941 20 131 3.2 3.2 0.00 0.00 0.00 69 1015.7
20260508225438 20 85 0.0 0.0 0.00 0.00 0.00 70 1015.5
20260508224936 20 91 0.0 0.0 0.00 0.00 0.00 69 1015.6
20260508224433 20 91 0.0 0.0 0.00 0.00 0.00 69 1015.8
20260508223930 20 85 1.6 3.2 0.00 0.00 0.00 68 1015.6
20260508223428 20 96 3.2 3.2 0.00 0.00 0.00 69 1015.4
20260508222925 20 90 1.6 1.6 0.00 0.00 0.00 69 1015.4
20260508222423 20 91 0.0 0.0 0.00 0.00 0.00 69 1015.5
20260508221919 20 87 0.0 0.0 0.00 0.00 0.00 68 1015.4
20260508221415 20 100 4.8 4.8 0.00 0.00 0.00 68 1015.4
20260508220911 21 104 1.6 3.2 0.00 0.00 0.00 67 1015.3
20260508220408 20 93 1.6 1.6 0.00 0.00 0.00 67 1015.4
20260508215904 20 185 4.8 4.8 0.00 0.00 0.00 66 1015.4
20260508215401 21 86 0.0 0.0 0.00 0.00 0.00 67 1015.4
20260508214858 21 173 4.8 4.8 0.00 0.00 0.00 66 1015.4
20260508214355 21 90 1.6 1.6 0.00 0.00 0.00 67 1015.1
20260508213851 21 194 6.4 9.7 0.00 0.00 0.00 67 1015.3
20260508213349 21 85 0.0 1.6 0.00 0.00 0.00 67 1015.3
20260508212844 21 86 1.6 1.6 0.00 0.00 0.00 66 1015.3
20260508212341 21 89 1.6 1.6 0.00 0.00 0.00 66 1015.6
20260508211837 21 170 6.4 9.7 0.00 0.00 0.00 66 1015.3
20260508211333 21 212 8.0 9.7 0.00 0.00 0.00 65 1015.5
20260508210830 21 90 0.0 1.6 0.00 0.00 0.00 65 1015.2
20260508210327 21 145 3.2 3.2 0.00 0.00 0.00 63 1015.4
20260508205824 21 97 1.6 1.6 0.00 0.00 0.00 64 1015.2
20260508205320 21 122 3.2 3.2 0.00 0.00 0.00 64 1015.2
20260508204817 22 194 3.2 4.8 0.00 0.00 0.00 61 1015.1
20260508204314 23 92 1.6 1.6 0.00 0.00 0.00 62 1015.0
20260508203810 22 86 0.0 0.0 0.00 0.00 0.00 63 1015.0
20260508203306 22 160 4.8 4.8 0.00 0.00 0.00 61 1015.4
20260508202801 22 227 4.8 4.8 0.00 0.00 0.00 61 1015.4
20260508202259 22 78 3.2 3.2 0.00 0.00 0.00 60 1015.2
20260508201756 22 97 3.2 3.2 0.00 0.00 0.00 61 1015.2
20260508201253 22 157 3.2 3.2 0.00 0.00 0.00 60 1015.0
20260508200749 23 226 6.4 8.0 0.00 0.00 0.00 58 1015.0
20260508200246 24 92 4.8 8.0 0.00 0.00 0.00 56 1015.3
20260508195742 24 107 3.2 3.2 0.00 0.00 0.00 49 1015.3
20260508195239 24 123 3.2 3.2 0.00 0.00 0.00 48 1015.4
20260508194735 25 141 3.2 3.2 0.00 0.00 0.00 48 1015.4
20260508194233 25 83 0.0 1.6 0.00 0.00 0.00 46 1015.5
20260508193730 25 73 1.6 1.6 0.00 0.00 0.00 46 1015.7
20260508193226 25 83 0.0 0.0 0.00 0.00 0.00 49 1015.7
20260508192722 25 25 4.8 4.8 0.00 0.00 0.00 47 1015.8
20260508192220 24 77 0.0 1.6 0.00 0.00 0.00 48 1015.8
20260508191717 25 82 0.0 0.0 0.00 0.00 0.00 50 1015.5
20260508191214 24 65 3.2 3.2 0.00 0.00 0.00 48 1015.7
20260508190711 24 92 1.6 1.6 0.00 0.00 0.00 48 1015.7
20260508190207 25 88 1.6 3.2 0.00 0.00 0.00 47 1015.7
20260508185704 25 77 0.0 0.0 0.00 0.00 0.00 49 1015.8
20260508185201 25 88 1.6 1.6 0.00 0.00 0.00 49 1015.9
20260508184658 23 62 0.0 1.6 0.00 0.00 0.00 48 1016.2
20260508184155 24 26 4.8 4.8 0.00 0.00 0.00 48 1015.9
20260508183652 23 46 1.6 3.2 0.00 0.00 0.00 50 1016.0
20260508183148 23 75 4.8 4.8 0.00 0.00 0.00 48 1016.3
20260508182644 24 81 0.0 1.6 0.00 0.00 0.00 48 1016.3
20260508182141 24 28 3.2 4.8 0.00 0.00 0.00 47 1016.2
20260508181636 23 78 1.6 1.6 0.00 0.00 0.00 51 1016.7
20260508181134 23 19 4.8 4.8 0.00 0.00 0.00 50 1016.5
20260508180631 23 77 0.0 1.6 0.00 0.00 0.00 51 1016.5
20260508180127 23 121 3.2 3.2 0.00 0.00 0.00 49 1016.5
20260508175624 23 48 1.6 3.2 0.00 0.00 0.00 49 1016.7
20260508175121 23 73 3.2 3.2 0.00 0.00 0.00 48 1017.0
20260508174618 23 88 0.0 0.0 0.00 0.00 0.00 49 1016.7
20260508174115 23 56 1.6 1.6 0.00 0.00 0.00 51 1016.7
20260508173612 23 63 3.2 3.2 0.00 0.00 0.00 49 1016.9
20260508173108 25 80 1.6 1.6 0.00 0.00 0.00 47 1016.7
20260508172606 24 143 1.6 1.6 0.00 0.00 0.00 49 1016.8
20260508172102 24 76 0.0 0.0 0.00 0.00 0.00 49 1017.0
20260508171558 23 66 3.2 4.8 0.00 0.00 0.00 51 1017.0
20260508171055 24 96 3.2 4.8 0.00 0.00 0.00 50 1017.2
20260508170553 24 74 0.0 0.0 0.00 0.00 0.00 50 1017.3
20260508170049 23 92 0.0 0.0 0.00 0.00 0.00 51 1017.3
20260508165547 23 80 1.6 3.2 0.00 0.00 0.00 49 1017.3
20260508165043 22 89 0.0 0.0 0.00 0.00 0.00 51 1017.2
20260508164540 22 83 1.6 3.2 0.00 0.00 0.00 48 1017.4
20260508164037 22 91 1.6 1.6 0.00 0.00 0.00 51 1017.2
20260508163534 22 70 1.6 3.2 0.00 0.00 0.00 49 1017.3
20260508163031 22 106 1.6 1.6 0.00 0.00 0.00 49 1017.6
20260508162528 22 172 3.2 4.8 0.00 0.00 0.00 50 1017.7
20260508162025 21 154 3.2 3.2 0.00 0.00 0.00 49 1017.7
20260508161522 22 71 3.2 3.2 0.00 0.00 0.00 51 1017.5
20260508161019 22 159 1.6 3.2 0.00 0.00 0.00 50 1017.9
20260508160518 22 53 3.2 3.2 0.00 0.00 0.00 55 1017.9
20260508160014 21 68 1.6 1.6 0.00 0.00 0.00 52 1018.3
20260508155511 22 55 4.8 4.8 0.00 0.00 0.00 52 1018.5
20260508155008 21 78 1.6 1.6 0.00 0.00 0.00 52 1018.3
20260508154505 22 94 1.6 3.2 0.00 0.00 0.00 53 1018.4
20260508154002 22 71 1.6 3.2 0.00 0.00 0.00 53 1018.4
20260508153459 21 83 1.6 1.6 0.00 0.00 0.00 55 1018.4
20260508152955 21 61 3.2 3.2 0.00 0.00 0.00 55 1018.5
20260508152452 21 159 3.2 3.2 0.00 0.00 0.00 53 1018.6
20260508151948 21 46 4.8 4.8 0.00 0.00 0.00 55 1018.5
20260508151444 20 77 4.8 4.8 0.00 0.00 0.00 54 1018.5
20260508150941 21 79 4.8 4.8 0.00 0.00 0.00 53 1018.4
20260508150438 20 90 1.6 1.6 0.00 0.00 0.00 56 1018.4
20260508145933 20 65 4.8 4.8 0.00 0.00 0.00 56 1018.6
20260508145431 20 72 6.4 9.7 0.00 0.00 0.00 56 1018.6
20260508144927 20 88 1.6 3.2 0.00 0.00 0.00 60 1018.6
20260508144425 20 103 8.0 12.9 0.00 0.00 0.00 55 1018.4
20260508143922 20 98 1.6 1.6 0.00 0.00 0.00 59 1018.3
20260508143420 20 93 6.4 9.7 0.00 0.00 0.00 59 1018.3
20260508142916 20 84 1.6 3.2 0.00 0.00 0.00 60 1018.3
20260508142413 20 47 6.4 8.0 0.00 0.00 0.00 60 1018.2
20260508141909 19 81 8.0 9.7 0.00 0.00 0.00 60 1018.2
20260508141406 19 84 4.8 4.8 0.00 0.00 0.00 62 1018.2
20260508140904 19 79 0.0 1.6 0.00 0.00 0.00 64 1018.1
20260508140401 19 66 1.6 3.2 0.00 0.00 0.00 64 1018.2
20260508135856 18 85 3.2 3.2 0.00 0.00 0.00 66 1018.2
20260508135353 18 84 6.4 9.7 0.00 0.00 0.00 65 1018.0
20260508134849 19 60 1.6 1.6 0.00 0.00 0.00 65 1017.8
20260508134346 18 80 4.8 8.0 0.00 0.00 0.00 67 1017.9
20260508133843 18 85 4.8 8.0 0.00 0.00 0.00 68 1018.1
20260508133341 18 82 6.4 8.0 0.00 0.00 0.00 68 1017.6
20260508132837 18 73 4.8 4.8 0.00 0.00 0.00 71 1017.8
20260508132335 18 107 1.6 3.2 0.00 0.00 0.00 74 1017.9
20260508131832 17 50 4.8 4.8 0.00 0.00 0.00 74 1017.5
20260508131327 17 74 0.0 1.6 0.00 0.00 0.00 77 1017.6
20260508130824 17 81 3.2 4.8 0.00 0.00 0.00 79 1017.5
20260508130321 16 59 1.6 3.2 0.00 0.00 0.00 80 1017.6
20260508125817 16 76 4.8 4.8 0.00 0.00 0.00 80 1017.5
20260508125314 16 66 1.6 1.6 0.00 0.00 0.00 82 1017.3
20260508124812 16 88 0.0 0.0 0.00 0.00 0.00 84 1017.4
20260508124308 16 81 0.0 1.6 0.00 0.00 0.00 84 1017.4
20260508123807 16 88 4.8 9.7 0.00 0.00 0.00 84 1017.2
20260508123305 16 84 0.0 0.0 0.00 0.00 0.00 84 1017.5
20260508122801 15 80 3.2 4.8 0.00 0.00 0.00 86 1017.1
20260508122258 15 84 0.0 1.6 0.00 0.00 0.00 88 1017.1
20260508121755 15 81 0.0 0.0 0.00 0.00 0.00 88 1017.0
20260508121254 15 84 0.0 0.0 0.00 0.00 0.00 88 1016.9
20260508120750 15 74 1.6 1.6 0.00 0.00 0.00 89 1016.9
20260508120248 15 82 1.6 1.6 0.00 0.00 0.00 89 1017.0
20260508115746 15 74 0.0 1.6 0.00 0.00 0.00 90 1017.0
20260508115243 15 72 1.6 1.6 0.00 0.00 0.00 90 1016.8
20260508114739 15 83 0.0 0.0 0.00 0.00 0.00 90 1016.8
20260508114236 15 82 1.6 3.2 0.00 0.00 0.00 90 1016.6
20260508113732 15 70 1.6 1.6 0.00 0.00 0.00 90 1016.4
20260508113231 15 81 4.8 4.8 0.00 0.00 0.00 90 1016.4